Location: Newark
(45.2500°N, 7.5833°E)
Time: 22:28:23
(UTC+00:00)

NUDT-PHONESAT - Visible Passes

Search period start: 21 February 2020 00:00
Search period end: 02 March 2020 00:00
Orbit: 485 x 504 km, 97.4° (Epoch: 21 February)

Date Brightness Start Highest point End Pass type
(mag) Time Alt. Az. Time Alt. Az. Time Alt. Az.
21 Feb ? 18:14:36 10° SW 18:16:50 16° W 18:19:04 10° NW visible
22 Feb ? 05:39:20 10° NNE 05:42:44 36° E 05:46:07 10° SSE visible
22 Feb ? 17:52:21 10° SSW 17:55:27 27° W 17:58:34 10° NW visible
23 Feb ? 05:18:35 10° NE 05:21:23 20° E 05:24:11 10° SE visible
24 Feb ? 04:58:32 10° ENE 04:59:59 12° E 05:01:25 10° ESE visible
25 Feb ? 18:24:01 10° WSW 18:25:35 12° W 18:27:11 10° WNW visible
26 Feb ? 18:01:21 10° SW 18:04:11 21° W 18:07:01 10° NW visible
27 Feb ? 05:27:00 10° NE 05:30:07 26° E 05:33:13 10° SSE visible
27 Feb ? 17:39:26 10° SSW 17:42:49 38° W 17:46:13 10° NNW visible
28 Feb ? 05:06:32 10° NE 05:08:43 15° E 05:10:53 10° SE visible
01 Mar ? 18:10:23 10° SW 18:12:50 17° W 18:15:19 10° NW visible
